User: anonymous   Login
Location: Unspecified
(0.0000°N, 0.0000°E)
Time: 21:49:44
(UTC+02:00)
Language:

Cosmos 2082 Rocket - Orbit

View from above orbital plane
View from above orbital plane
View from above satellite
View from above satellite

Ground track
Ground track

The orbit data is extracted from the following two-line orbital elements,

1 20625U 90046B   17291.95305553 -.00000329 +00000-0 -14633-3 0  9995
2 20625 070.9985 249.3765 0016844 278.1275 081.7937 14.14620222415083
Epoch (UTC): 18 October 2017 22:52:23
Eccentricity: 0.0016844
inclination: 70.9985°
perigee height: 831 km
apogee height: 856 km
right ascension of ascending node: 249.3765°
argument of perigee: 278.1275°
revolutions per day: 14.14620222
mean anomaly at epoch: 81.7937°
orbit number at epoch: 41508

The dashed part of the orbit path shows where the satellite is in the earth's shadow,  

DLR